Location: Staunton
(38.1490°N, 79.0720°W)
Time: 11:13:14
(UTC-04:00)

ISS - Pass Details

Date: 28 May 2020
Orbit: 417 x 420 km, 51.6° (Epoch: 26 May)

Event Time Altitude Azimuth Distance (km) Brightness Sun altitude
Rises 00:10:55 0° 308° (NW) 2,364 0.8 -28.5°
Reaches altitude 10° 00:13:01 10° 306° (NW) 1,498 -0.3 -28.6°
Enters shadow 00:13:28 13° 306° (NW) 1,319 -0.7 -28.7°
